Other Surface Observations
Issued by NWS Tucson, AZ

Home | Current Version | Previous Version | Text Only | Print | Product List | Glossary On
Versions: 1 2 3 4 5 6 7 8 9 10 11 12 13 14 15 16 17 18 19 20 21 22 23 24 25 26 27 28 29 30 31 32 33 34 35 36 37 38 39 40 41 42 43 44 45 46 47 48 49 50
000
SXUS55 KTWC 041915
OSOTWC

WEATHER ROUNDUP FOR SOUTHEAST ARIZONA
NATIONAL WEATHER SERVICE TUCSON AZ
1215 PM MST WED MAR 04 2015

AZZ504>506-514-042015-
LOCATION       SKY/WX    TMP DP  RH WIND       PRES   REMARKS
TUCSON         SUNNY     59  39  47 VRB6      30.03S
DAVIS-MONTHAN  SUNNY     57  36  44 W12       30.01R
CHILDRENS PARK N/A       55  40  58 NW5               PIMA CO DEQ
ALVERNON/22ND  N/A      N/A N/A N/A N/A               PIMA CO DEQ
CHERRY/GLENN   N/A      N/A N/A N/A N/A               PIMA CO DEQ
TANGERINE      N/A       56 N/A N/A W4                PIMA CO DEQ
CONTL RANCH    N/A       57  42  57 W5                PIMA CO DEQ
GRANT/1ST      N/A       55  40  58 NW4               PIMA CO DEQ
CRAYCROFT/22ND N/A      N/A N/A N/A N/A               PIMA CO DEQ
GOLFLINKS/KOLB N/A       54  38  55 NW5               PIMA CO DEQ
AJO/12TH       N/A       55  40  56 W4                PIMA CO DEQ
SAGUARO EAST   N/A      N/A N/A N/A N/A               PIMA CO DEQ
FAIRGROUNDS    N/A       53 N/A N/A W6                PIMA CO DEQ
SAGUARO        N/A       59  38  45 W3                *SABINO CYN
SAN CARLOS     N/A       60  34  37 SW3               *SAN CARLOS
GREEN VALLEY   N/A       56  37  49 N5                PIMA CO DEQ
HORSE CAMP CYN N/A       52  33  49 NW5G13            *ARAVAIPA CYN
RINCON MTNS    N/A       35  26  70 W3                *NR MANNING CAMP
$$

AZZ509>511-042015-
LOCATION       SKY/WX    TMP DP  RH WIND       PRES   REMARKS
SAFFORD        SUNNY     59  31  34 W13       29.96F
STRAY HORSE    N/A       39  23  52 S4                *
TRAIL CABIN    N/A       47  22  37 NW7G13            *N OF GRANVILLE
BLACK HILLS    N/A       58  31  36 NW13G21           *N OF FT THOMAS
DRY LAKE       N/A       38  19  46 N5G12             *NATANES MTNS
NOON CREEK     N/A       49  35  58 NE6               *PINALENO MTNS
COLUMBINE      N/A       29  28  96 CALM              *PINALENO MTNS
GUTHRIE        N/A       43  26  51 SW3               *SW OF GUTHRIE
$$

AZZ502-503-513-042015-
LOCATION       SKY/WX    TMP DP  RH WIND       PRES   REMARKS
NOGALES        CLOUDY    53  30  41 VRB5      30.00R
SELLS          N/A       59  40  50 SE3               *
SASABE         N/A       55  37  51 N4                *ALTAR VLY
HOPKINS        N/A       36  30  80 SW6               *SANTA RITA MTNS
CARR CYN       N/A       51  31  47 E4G12             *W OF HEREFORD
$$

AZZ507-508-512-042015-
LOCATION       SKY/WX    TMP DP  RH WIND       PRES   REMARKS
SIERRA VISTA   PTSUNNY   52  30  43 W13G22    30.00S
DOUGLAS        PTSUNNY   53  32  44 N5        29.99S
EMPIRE MTNS    N/A       50  32  49 NW9G16            *LAS CIENEGAS NCA
MULESHOE RANCH N/A       52  32  47 NW10G17           *PRESERVE
HEADQUARTERS   N/A       48  30  49 SW7G15            *CHIRICAHUA MTNS
$$

.............................NOTES.............................
THIS IS AN AUTOMATED COLLECTIVE WITH MINIMAL QUALITY CONTROL.
PIMA CO DEQ SITES HAVE NONSTANDARD WIND SENSOR HEIGHTS.
PIMA CO DEQ SITES DO NOT REPORT WIND GUSTS.
* INDICATES WIND SENSORS LOCATED AT 20 FEET INSTEAD OF 33 FEET.
..............................KEY..............................
SKY/WX - SKY CONDITION/WEATHER
TMP    - TEMPERATURE IN FAHRENHEIT
DP     - DEWPOINT IN FAHRENHEIT
RH     - RELATIVE HUMIDITY IN PERCENT
WIND   - DIRECTION AND SPEED IN MILES PER HOUR (MPH)
VRB    - VARIABLE WIND DIRECTION
PRES   - MEAN SEA LEVEL PRESSURE IN INCHES OF MERCURY
         F - FALLING PRESSURE   R - RISING PRESSURE
         S - STEADY PRESSURE
VSB    - VISIBILITY IN MILES
HX     - HEAT INDEX IN FAHRENHEIT
WCI    - WIND CHILL INDEX IN FAHRENHEIT
N/A    - NOT AVAILABLE
AFB    - AIR FORCE BASE
         DAVIS-MONTHAN IS DAVIS-MONTHAN AIR FORCE BASE
CYN    - CANYON
MTNS   - MOUNTAINS
NCA    - NATIONAL CONSERVATION AREA
NR     - NEAR
VLY    - VALLEY
CONTL  - CONTINENTAL
PIMA CO DEQ - PIMA COUNTY DEPT OF ENVIRONMENTAL QUALITY



USA.gov is the U.S. government's official web portal to all federal, state and local government web resources and services.